Location: Caltech
(34.1382°N, 118.1253°W)
Time: 05:02:27
(UTC-08:00)

OAO 2 Rocket - Visible Passes

Search period start: 07 February 2016 00:00
Search period end: 17 February 2016 00:00
Orbit: 677 x 747 km, 35.0° (Epoch: 06 February)

Date Brightness Start Highest point End Pass type
(mag) Time Alt. Az. Time Alt. Az. Time Alt. Az.
07 Feb 6.1 17:56:15 10° WSW 17:58:22 13° SW 18:00:30 10° S visible
14 Feb 6.3 06:00:23 10° SSE 06:02:16 12° SE 06:04:09 10° ESE visible
16 Feb 5.7 05:47:39 10° SSW 05:51:32 21° SSE 05:55:28 10° E visible
